sim
Sign-in with your pilot id or email,
or register
Callsign
Passwort

Schedule Details

Flight Number: RYR7128 (1)
Departure: Dublin Airport (EIDW) at 14:10
Arrival: Fuerteventura Airport (GCFV) at 18:35
Route: Ryanair Passenger Schedule. Enter filed route here before submitting Pirep.

Weather Information
Getting current METAR information for EIDW 172300Z 23009KT 190V270 9999 FEW040 13/09 Q0998 NOSIG
Getting current METAR information for GCFV 172300Z AUTO 03003KT 010V070 9000 4200S NSC 23/20 Q1014

Schedule Frequency

Route Map